FENGYUN 1C DEB

Satellite information

Favourite Embed

Satellite Type and Status

DEBRISIN ORBIT

Key statistics

Satellite FENGYUN 1C DEB at a glance.

Uptime

9618

Days in orbit

Revolutions

≈ 14.4

Per day

Orbit

SSO

Sun Synchronous Orbit

Inclination

98.3

Latest

Satellite identification and parameters

Extended collection of information and parameters for FENGYUN 1C DEB.

Object identification

Identified? True

Debris? True

Object name: FENGYUN 1C DEB

International designator: 1999-025EVJ

Object number (NORAD): 38818

Object ID (CCSDS): 38818

Country: PEOPLES REPUBLIC OF CHINA (PRC)

Current information (Y/N): Y

RCS size: SMALL

Orbital parameters

Period: 100.063 minutes

Inclination: 98.313 deg

SMA: 7139.65 km

Apoapsis: 824.623 km

Periapsis: 698.407 km

RAAN: 309.6793 deg

Eccentricy: 0.00883903

Argument of periapsis: 29.9882 deg

Mean anomaly: 26.3528 deg

Mean motion: 14.39088089 rev/day

Mean motion (dot): 0.00001664 rev/day2

B* drag term: 0.00052777547 1/REarth

Two-line elements (TLE)

Creation date: Sept. 8, 2025, 3:16 a.m.

Reference frame: TEME

Reference center: EARTH

Epoch: Sept. 7, 2025, 9:39 a.m. UTC

TLE line 0: 0 FENGYUN 1C DEB

TLE line 1: 1 38818U 99025EVJ 25250.40253562 .00001664 00000-0 52778-3 0 9993

TLE line 2: 2 38818 98.3130 309.6793 0088390 29.9882 26.3528 14.39088089658620

Live tracking on map

Real-time ground track for satellite FENGYUN 1C DEB.

In-orbit conjunctions

A list of the most updated potential collisions computed for object FENGYUN 1C DEB.

Target Orbit TCA Probability of collision Miss distance Type
SL-12 DEB LEO 2025-08-22 21:11:47 0.0002921777 85.0 (m) DEBRIS
CZ-6A DEB SSO 2024-11-15 02:28:10 0.0001816101 478.0 (m) DEBRIS
THOR BURNER 2 R/B SSO 2024-11-13 15:11:42 0.0006084154 393.0 (m) ROCKET BODY

Associated space launch

Chinese polar orbiting meteorological satellite

FENGYUN 1C DEB was lifted into orbit during the mission ‘Long March 4B | Feng Yun 1C’, on board a Long March 4B space rocket.

The launch took place on May 10, 1999, 1:33 a.m. from Launch Complex 7.

For more information about the launch, click the button.

Launch to space Long March 4B | Feng Yun 1C
Long March 4B | Feng Yun 1C

Agency: N/A

Status: Launch Successful

Launch date: May 10, 1999, 1:33 a.m. UTC

Rocket: Long March 4B

Launch pad: Launch Complex 7

Location: Taiyuan Satellite Launch Center, People's Republic of China

...

Latest news about this satellite

There are no fresh news available about this satellite. Check back as we update our databases every day.


Newsletter sign-up

Weekly statistics, charts and insights to help you stay on top of the space industry.